Tracking 28052 objects as of 23-Sep-2023
HD Live streaming from Space Station
objects crossing your sky now

STARLINK-2002

Track STARLINK-2002 now!
10-day predictions
STARLINK-2002 is classified as:


NORAD ID: 47597
Int'l Code: 2021-009BB
Perigee: 553.5 km
Apogee: 555.2 km
Inclination: 53.1 °
Period: 95.6 minutes
Semi major axis: 6925 km
RCS: Unknown
Launch date: February 4, 2021
Source: United States (US)
Launch site: AIR FORCE EASTERN TEST RANGE (AFETR)
Your satellite tracking list
Your tracking list is empty




NASA's NSSDC Master Catalog

Two Line Element Set (TLE):
1 47597U 21009BB  23265.82648051  .00013080  00000-0  89509-3 0  9992
2 47597  53.0539 116.7755 0001243  83.4341 276.6789 15.06411953145037
Source of the keplerian elements: AFSPC